カタログに戻る

SL-16 DEB

LostLEO
NORAD 39893·DEBRIS·🇷🇺 Russia

打ち上げ Mar 26, 1993 から Baikonur Cosmodrome

Loading…

次のパス (今後24時間)

TLE

古いSource: Space-Track

元期: Sep 1, 2022, 18:37 UTC

1 39893U 93016BT  22244.77588109  .00002794  00000-0  10908-2 0  9992
2 39893  70.9677 280.7013 0112453  77.2578 284.1091 14.27040030951510

AllMySatでSL-16 DEBをリアルタイム追跡

Download on the App Store